Regional Weather Roundup
Issued by NWS Newport/Morehead, NC

Current Version | Previous Version | Graphics & Text | Print | Product List | Glossary Off
Versions: 1 2 3 4 5 6 7 8 9 10 11 12 13 14 15 16 17 18 19 20 21 22 23 24 25 26 27 28 29 30 31 32 33 34 35 36 37 38 39 40 41 42 43 44 45 46 47 48 49 50

000
ASUS42 KMHX 020513
RWRMHX
WEATHER ROUNDUP FOR EASTERN NORTH CAROLINA
NATIONAL WEATHER SERVICE NEWPORT/MOREHEAD CITY NC
100 AM EDT TUE JUN 02 2015

NOTE: "FAIR" INDICATES FEW OR NO CLOUDS BELOW 12,000 FEET
WITH NO SIGNIFICANT WEATHER AND/OR OBSTRUCTIONS TO VISIBILITY

NCZ015>017-031-032-045>047-102-103-020600-
NORTH COAST

CITY           SKY/WX    TMP DP  RH WIND       PRES   REMARKS
EDENTON        MOCLDY    74  68  82 S8        30.04F
ELIZABETH CITY PTCLDY    73  68  84 S5        30.04F
KITTY HAWK     CLEAR     74  69  82 SW5       30.04F
MANTEO         CLEAR     75  69  81 SW10      30.05F

$$

NCZ045>047-081-094-103-104-020600-
CENTRAL COAST

CITY           SKY/WX    TMP DP  RH WIND       PRES   REMARKS
FRISCO         PTCLDY    76  68  76 SW10      30.06F
SWANQUARTER      N/A     77 N/A N/A SW12G17   30.03S

$$

NCZ095-097-098-100-101-020600-
SOUTHERN COAST

CITY           SKY/WX    TMP DP  RH WIND       PRES   REMARKS
BEAUFORT       CLEAR     75  69  81 S9        30.05F
CEDAR ISLAND     N/A     73 N/A N/A S2G8      30.09S
JACKSONVILLE   PTCLDY    72  68  87 CALM      30.04F
PINEY ISLAND   NOT AVBL
WILMINGTON     PTCLDY    72  69  90 S5        30.05F


$$

NCZ011>013-027>030-043-044-078>080-089-090>093-098-020600-
COASTAL PLAIN

CITY           SKY/WX    TMP DP  RH WIND       PRES   REMARKS
AHOSKIE        PTCLDY    70  65  83 CALM      30.03S
CLINTON        PTCLDY    74  71  89 S3        30.04S
ELIZABETHTOWN  MOCLDY    73  70  88 S5        30.04S
GOLDSBORO      MOCLDY    73  69  87 CALM      30.01F
GREENVILLE     PTCLDY    72  70  94 S7        30.05F
HAVELOCK       CLEAR     71  67  87 S3        30.06F
KENANSVILLE    CLEAR     70  67  90 CALM      30.05S
KINSTON        PTCLDY    72  68  87 S5        30.05S
NEW BERN       PTCLDY    69  66  90 CALM      30.06F
RICHLANDS      PTCLDY    68  64  88 CALM      30.05S
ROCKY MOUNT    MOCLDY    71  69  93 SW5       30.03S
WASHINGTON     CLEAR     72  68  86 S3        30.05S
WHITEVILLE     MOCLDY    73  69  89 CALM      30.04S

$$

AMZ130-135-150-152-154-156-158-170-250-252-270-ANZ085-086-088-633-658-670-020600-
MARINE OBSERVATIONS

STATION/POSITION TIME  TEMP    WIND        PRES    WAVE   SWELL
                       AIR SEA DIR/SP/G            HT/PER HT/PER
                 (UTC) (F)     (DEG/KT/KT) (MB)    (FT/S) (FT/S)
CHESAPEAKE LIGHT 0500   72     300/  7/  8 1018.3
64 E VA BEACH    0450   74 73  220/  8/  8 1017.6    3/ 8   3/ 8
DUCK             0400   76 55  210/ 13/ 17 1016.7
2 E DUCK         0411      62                N/A     2/ 8
OREGON INLET     0400   77 78  190/ 13/ 15 1017.8
13E OREGON INLT  0500      76                N/A     3/ 8
HATTERAS CG      0400   77 81  200/  5/ 10 1017.7
DIAMOND BUOY     0450   77 78  190/ 12/ 16 1017.8    4/ 8   3/ 8
CAPE LOOKOUT     0500   76     200/  8/  9 1017.5
BEAUFORT LAB     0400   77 78  200/  9/ 12 1017.1
30 SE NEW RVR IN NOT AVBL
27 SE WRIGHTSVLE NOT AVBL
5 SE WRIGHTSVLE  0408   78 79  220/ 14/ 17 1017.6
225 S CAPE HAT   0450   76 77   CALM  /  2 1018.7    4/ 8   3/ 8
41 SE CHARLESTON 0450   79 80  210/  8/ 10 1017.3    3/ 9   3/ 9

$$


USA.gov is the U.S. government's official web portal to all federal, state and local government web resources and services.